* Astronomy

Members Login
Username 
 
Password 
    Remember Me  
Post Info TOPIC: KOSMOS 1793 satellite re-entry


L

Posts: 131433
Date:
RE: KOSMOS 1793 satellite re-entry
Permalink  
 


Update
The Kosmos 1793 (US-K nro 51) satellite re-entered the Earths atmosphere on the 15th May, 2011 @ 18:35 GMT  ± 1 minute.

Inclination: 62.17°
Revolution Number: 18421
Predicted Location:  53°S, 36°E



__________________


L

Posts: 131433
Date:
Permalink  
 

Update
The Kosmos 1793 (US-K nro 51) satellite is predicted to re-enter the Earths atmosphere on the 15th May, 2011 @ 18:49 GMT  ± 7 hours.

KOSMOS 1793
1 17134U 86091A 11135.34820887 .92151616 -29541-5 12234-2 0 6215
2 17134 061.9987 325.0876 0838480 218.8695 203.5106 14.62987646184147


Period:       118.48 minutes
Inclination: 62.17°
Apogee:     3129 km
Perigee:     96 km
Revolution Number: 18420
Predicted Location:  55.2°S, 118.8°E



__________________


L

Posts: 131433
Date:
Permalink  
 

Update
The Kosmos 1793 (US-K nro 51) satellite is predicted to re-enter the Earths atmosphere on the 15th May, 2011 @ 11:28 GMT  ± 15 hours.

KOSMOS 1793
1 17134U 86091A 11133.97181270 +.51929312 +18755-5 +11665-2 0 06074
2 17134 062.0997 329.0680 1673068 216.9188 314.1190 12.67215763183950


Period:       118.48 minutes
Inclination: 62.17°
Apogee:     3129 km
Perigee:     96 km
Revolution Number: 18416
Predicted Location:  16.4°N, 91.8°E



__________________


L

Posts: 131433
Date:
Permalink  
 

KOSMOS 1793
1 17134U 86091A 11133.37694333 .65205491 -35404-5 16125-2 0 6018
2 17134 062.1285 330.5064 1940117 216.6754 186.6716 12.06854118183886


__________________


L

Posts: 131433
Date:
Permalink  
 

The Kosmos 1793 (US-K nro 51) satellite that was launched on the 20th November, 1986, from the Plesetsk Cosmodrome, is predicted to re-enter the Earths atmosphere on the 15th May, 2011 @ 02:17 GMT  ± 48 hours.

KOSMOS 1793
1 17134U 86091A 11132.53488303 .42641019 11439-6 13349-2 0 5968
2 17134 062.1453 332.3071 2301326 216.1537 259.2621 11.26156771183781


Period:       137.35 minutes
Inclination: 62.17°
Apogee:     4783 km
Perigee:     97 km
Revolution Number: 18413
Predicted Location:  38.5°S, 264.8°E



__________________
Page 1 of 1  sorted by
 
Quick Reply

Please log in to post quick replies.



Create your own FREE Forum
Report Abuse
Powered by ActiveBoard